[[{"header":{"parameterUnit":"m.s-1","parameterCategory":1,"la1":30.2991,"la2":30.254,"lo1":-89.0895,"lo2":-89.0444,"dy":0.0017,"dx":0.0017,"nx":28,"ny":28,"refTime":"2024-06-29T09:00:00:Z","depth":0,"parameterNumber":2,"parameterNumberName":"U-component_of_WINDS"},"data":[0,0,0,0,0,0,0,0,0,0,0,0,0,0,0,0,0,0,0,0,0,0,0,0,0,0,0,0,0,0,0,0,0,0,0,0,0,0,0,0,0,0,0,0,0,0,0,0,0,0,0,0,0,0,0,0,0,0,2.0978,2.0978,0,2.103,2.103,2.1031,2.0974,2.0972,2.097,2.0968,2.1022,2.1025,2.1029,0,0,0,0,0,0,0,0,0,0,0,0,0,2.0829,2.0832,2.0977,2.0978,2.0979,2.103,2.103,2.1031,2.0975,2.0972,2.0969,2.0967,2.1021,2.1025,2.1029,0,0,0,0,0,0,0,0,0,0,0,0,0,2.0889,2.0833,2.0977,2.0957,2.0956,2.1029,2.103,2.1031,2.0975,2.0972,2.0969,2.0966,2.1019,2.1024,2.103,2.1126,0,0,2.1045,2.1048,0,0,0,0,0,0,0,0,2.0885,2.0894,2.0959,2.0958,2.0957,2.0992,2.0998,2.1063,2.0976,2.0968,2.0968,2.0964,2.1015,2.102,2.1037,2.1129,2.1131,2.1046,2.1049,2.1051,2.1053,0,0,0,0,0,0,0,2.0881,2.0892,2.0998,2.096,2.0959,2.0945,2.095,2.101,2.1009,2.0968,2.0964,2.0971,2.1013,2.1032,2.1038,2.1132,2.1046,2.105,2.1054,2.1056,2.1304,2.1308,0,0,0,0,0,0,2.0879,2.0888,2.0996,2.1,2.0912,2.095,2.0956,2.0984,2.1008,2.1009,2.0974,2.0968,2.1025,2.1032,2.104,2.1153,2.1051,2.1056,2.1059,2.1301,2.1305,2.1309,0,0,0,0,0,0,2.0876,2.089,2.0994,2.0943,2.0955,2.0956,2.0989,2.0987,2.1005,2.1012,2.1012,2.0993,2.1023,2.1032,2.1105,2.1154,2.1058,2.1063,2.1297,2.1302,2.1307,2.1381,0,0,0,0,0,0,2.0872,2.0889,2.0926,2.0944,2.0958,2.1059,2.0992,2.099,2.1014,2.1008,2.103,2.1031,2.1021,2.1097,2.111,2.1159,2.1067,2.1292,2.1299,2.1305,2.1374,2.1388,2.14,0,0,0,0,0,2.0867,2.0945,2.0928,2.0941,2.1004,2.1062,2.107,2.1057,2.1019,2.1055,2.106,2.103,2.1147,2.1105,2.1119,2.1171,2.1289,2.1297,2.1305,2.1369,2.1386,2.14,0,0,0,0,0,0,2.0933,2.0947,2.0928,2.1014,2.1037,2.1052,2.1098,2.1075,2.111,2.1102,2.1084,2.109,2.1167,2.1176,2.1129,2.1265,2.1212,2.1223,2.1256,2.1272,2.1285,2.128,2.1071,0,0,0,0,0,2.0957,2.1003,2.1013,2.1088,2.11,2.1098,2.1122,2.111,2.1133,2.1143,2.1152,2.1176,2.1217,2.1245,2.1284,2.1376,2.1379,2.1418,2.1431,2.1442,2.1451,2.1499,2.1516,2.1335,2.1335,2.1334,0,0,2.1008,2.1022,2.1052,2.1101,2.1118,2.1165,2.1106,2.1159,2.1193,2.1151,2.1219,2.1227,2.1252,2.1334,2.1371,2.1344,2.1502,2.1452,2.146,2.1464,2.1509,2.1526,2.1541,2.134,2.1339,2.1338,0,0,2.1124,2.114,2.1203,2.1221,2.1246,2.1243,2.1259,2.1277,2.1281,2.1349,2.1318,2.1359,2.1432,2.145,2.1469,2.1592,2.1566,2.1606,2.1673,2.172,2.1734,2.1746,2.1789,2.1804,2.1615,2.1615,2.1615,0,2.1184,2.1254,2.1239,2.1293,2.1316,2.1279,2.1342,2.136,2.1397,2.1413,2.1383,2.1473,2.1488,2.1572,2.1602,2.162,2.1636,2.1602,2.1733,2.1745,2.1757,2.1797,2.1813,2.162,2.1619,2.1619,2.1618,0,2.1326,2.1375,2.1423,2.1459,2.1487,2.1546,2.1539,2.1569,2.1555,2.1555,2.1625,2.1641,2.1682,2.1701,2.1688,2.1784,2.1767,2.1736,2.1682,2.1779,2.1816,2.1832,2.1626,2.1625,2.1623,2.1622,0,0,2.1484,2.151,2.1528,2.1543,2.1569,2.1606,2.1663,2.1703,2.1728,2.1755,2.1802,2.1864,2.1834,2.1856,2.1845,2.1886,2.198,2.1849,2.1849,2.1871,2.2085,2.2108,2.2126,2.1963,2.1966,2.1968,2.2083,0,2.16,2.1698,2.1686,2.178,2.1824,2.179,2.1839,2.186,2.1862,2.19,2.1902,2.1946,2.1905,2.1917,2.1956,2.196,2.2023,2.1952,2.2005,2.2007,2.1998,2.2146,2.217,2.2277,2.2097,2.21,2.2102,0,2.1747,2.1779,2.1877,2.1894,2.1912,2.1957,2.1992,2.2029,2.2051,2.2049,2.2074,2.2055,2.2111,2.2057,2.2134,2.2087,2.2108,2.2113,2.2117,2.212,2.2059,2.2151,2.2311,2.2326,2.2125,2.2123,2.2121,0,2.1851,2.1918,2.1985,2.1999,2.2021,2.2053,2.2064,2.2083,2.2108,2.2138,2.2153,2.2191,2.2211,2.224,2.2231,2.2192,2.2309,2.2255,2.2309,2.2309,2.2334,2.2332,2.2497,2.2351,2.235,2.235,2.235,0,2.198,2.2041,2.2031,2.2073,2.214,2.2125,2.2192,2.2199,2.2216,2.2257,2.2231,2.227,2.2257,2.2295,2.2289,2.2353,2.2363,2.2363,2.236,2.2364,2.2364,2.2377,2.2368,2.2354,2.2353,2.2352,2.2352,0,2.2106,2.2102,2.2173,2.2188,2.2193,2.2242,2.2254,2.2293,2.2293,2.2346,2.2357,2.2357,2.2401,2.2396,2.2445,2.2441,2.252,2.2509,2.2512,2.2509,2.2563,2.2557,2.2741,2.2763,2.2603,2.2605,2.2606,0,2.2188,2.2234,2.2254,2.2279,2.2292,2.2334,2.2359,2.2346,2.2373,2.2401,2.2436,2.2478,2.251,2.2582,2.2586,2.2624,2.2612,2.2674,2.2618,2.262,2.2611,2.2608,2.2612,2.2685,2.2687,2.2688,2.2689,0,2.2333,2.2328,2.2365,2.24,2.243,2.2457,2.2482,2.2505,2.2494,2.2526,2.257,2.2595,2.2645,2.2686,2.2721,2.2732,2.2709,2.2707,2.2721,2.2725,2.2724,2.2724,2.2541,2.2703,2.2701,2.27,2.27,2.2699,2.2438,2.2477,2.2496,2.2537,2.2555,2.2578,2.2615,2.2619,2.2656,2.2695,2.2686,2.2736,2.2756,2.2801,2.2815,2.2854,2.2831,2.2852,2.2857,2.2862,2.2868,2.272,2.2861,2.286,2.286,2.286,2.2859,0,2.258,2.2591,2.2629,2.2664,2.2696,2.2672,2.2698,2.2726,2.277,2.2791,2.2823,2.2874,2.2914,2.2921,2.2959,2.2988,2.2979,2.2999,2.2995,2.2998,2.2887,2.287,2.3006,2.3006,2.3006,2.3006,2.3006,2.3006,2.2657,2.2721,2.2719,2.2791,2.2802,2.285,2.2867,2.2888,2.2905,2.2962,2.2995,2.3,2.3015,2.3054,2.3089,2.309,2.3104,2.3128,2.3125,2.3021,2.3006,2.2992,2.2976,2.3132,2.3132,2.3233,2.3234,2.3234]},{"header":{"parameterUnit":"m.s-1","parameterCategory":1,"la1":30.2991,"la2":30.254,"lo1":-89.0895,"lo2":-89.0444,"dy":0.0017,"dx":0.0017,"nx":28,"ny":28,"refTime":"2024-06-29T09:00:00:Z","depth":0,"parameterNumber":3,"parameterNumberName":"V-component_of_WINDS"},"data":[0,0,0,0,0,0,0,0,0,0,0,0,0,0,0,0,0,0,0,0,0,0,0,0,0,0,0,0,0,0,0,0,0,0,0,0,0,0,0,0,0,0,0,0,0,0,0,0,0,0,0,0,0,0,0,0,0,0,5.9528,5.953,0,5.9666,5.9668,5.967,5.9642,5.964,5.9637,5.9635,5.9769,5.9775,5.9781,0,0,0,0,0,0,0,0,0,0,0,0,0,5.9231,5.9237,5.9528,5.953,5.9532,5.9666,5.9668,5.967,5.9643,5.964,5.9637,5.9634,5.9767,5.9774,5.9781,0,0,0,0,0,0,0,0,0,0,0,0,0,5.9364,5.9239,5.9528,5.9535,5.9537,5.9666,5.9668,5.967,5.9644,5.964,5.9636,5.9633,5.9765,5.9774,5.9782,5.9912,0,0,5.9809,5.9813,0,0,0,0,0,0,0,0,5.9356,5.9375,5.9532,5.9534,5.9537,5.9634,5.9613,5.9751,5.9644,5.9603,5.9635,5.9631,5.9727,5.9738,5.9772,5.9918,5.9924,5.981,5.9816,5.9819,5.9822,0,0,0,0,0,0,0,5.9347,5.9369,5.9583,5.9534,5.9537,5.9527,5.9542,5.9639,5.9684,5.9606,5.9604,5.9622,5.9727,5.9764,5.9775,5.9926,5.981,5.9818,5.9823,5.9827,6.0179,6.0183,0,0,0,0,0,0,5.9337,5.9361,5.9578,5.9587,5.9436,5.9536,5.9552,5.9606,5.9683,5.9691,5.9625,5.962,5.9751,5.9765,5.978,5.9933,5.9819,5.9828,5.9833,6.0175,6.018,6.0185,0,0,0,0,0,0,5.9331,5.9357,5.9573,5.9474,5.95,5.9545,5.9606,5.9611,5.9647,5.9697,5.9704,5.9654,5.9748,5.9767,5.9879,5.9938,5.9832,5.984,6.017,6.0177,6.0182,6.0243,0,0,0,0,0,0,5.9322,5.9355,5.9407,5.9475,5.9506,5.9672,5.9609,5.9616,5.9664,5.9659,5.9727,5.9734,5.9747,5.9866,5.9887,5.9948,5.9846,6.0165,6.0173,6.018,6.0236,6.0251,6.0263,0,0,0,0,0,5.9312,5.9417,5.9409,5.9436,5.9572,5.9676,5.9693,5.9708,5.9669,5.9719,5.975,5.9732,5.9928,5.9877,5.9901,5.9966,6.0162,6.0171,6.018,6.023,6.0248,6.0263,0,0,0,0,0,0,5.9353,5.9427,5.9419,5.955,5.9607,5.9671,5.9736,5.9726,5.9794,5.9786,5.9799,5.9814,5.9927,5.9957,5.9899,6.0092,6.0039,6.0053,6.0068,6.0086,6.0099,6.0088,5.9854,0,0,0,0,0,5.9378,5.9458,5.9517,5.9627,5.9656,5.9691,5.9737,5.9743,5.9802,5.9825,5.9864,5.9919,5.9993,6.0041,6.0112,6.024,6.0252,6.0296,6.031,6.032,6.0332,6.0399,6.0418,6.0215,6.0214,6.0214,0,0,5.9429,5.9479,5.9529,5.9637,5.9682,5.9761,5.9712,5.9799,5.9857,5.9837,5.9945,5.9975,6.0037,6.0157,6.0211,6.0186,6.0391,6.0332,6.034,6.0346,6.041,6.0429,6.0446,6.0221,6.022,6.0219,0,0,5.9562,5.961,5.9706,5.9752,5.9821,5.9843,5.9865,5.9931,5.9951,6.0059,6.0045,6.0112,6.024,6.0284,6.0323,6.047,6.0454,6.0493,6.0563,6.0627,6.0643,6.0658,6.0707,6.0725,6.0505,6.0505,6.0505,0,5.9617,5.974,5.9755,5.9844,5.989,5.9877,5.9972,6.0015,6.0102,6.0133,6.0103,6.0261,6.0302,6.043,6.0466,6.0499,6.0522,6.0485,6.064,6.0655,6.0668,6.0715,6.0734,6.0509,6.0508,6.0508,6.0508,0,5.9801,5.9886,5.9954,6.0041,6.0095,6.0186,6.0212,6.0264,6.0265,6.0289,6.0397,6.0445,6.0524,6.0555,6.0557,6.0682,6.0664,6.0638,6.0583,6.0691,6.0736,6.0754,6.0515,6.0513,6.0512,6.0511,0,0,5.9965,6.0058,6.0083,6.0121,6.0195,6.0259,6.0347,6.0426,6.0469,6.0529,6.0601,6.0708,6.0684,6.0728,6.0734,6.0791,6.09,6.0757,6.0758,6.0779,6.1037,6.1056,6.1077,6.089,6.0894,6.0897,6.1031,0,6.0104,6.0264,6.0279,6.042,6.0496,6.0484,6.056,6.0612,6.0636,6.0701,6.0727,6.0802,6.0765,6.0791,6.0847,6.0875,6.0952,6.0866,6.0954,6.0957,6.0938,6.1101,6.1121,6.1245,6.1049,6.1052,6.1054,0,6.0288,6.0354,6.0504,6.0564,6.0597,6.0666,6.0737,6.0802,6.0858,6.0871,6.092,6.0917,6.1004,6.0948,6.1066,6.1007,6.1044,6.1062,6.1068,6.1075,6.1011,6.111,6.1286,6.1304,6.1082,6.108,6.1078,0,6.0389,6.0516,6.0621,6.0654,6.0728,6.0776,6.0809,6.0862,6.0907,6.0969,6.0998,6.1068,6.1106,6.1159,6.1174,6.1132,6.129,6.1236,6.13,6.13,6.1333,6.1331,6.1516,6.1361,6.136,6.136,6.136,0,6.0542,6.0633,6.0667,6.0732,6.0832,6.0847,6.0945,6.0974,6.1021,6.1088,6.1081,6.1143,6.116,6.1225,6.1237,6.133,6.1348,6.1358,6.136,6.1358,6.1357,6.1381,6.1372,6.1365,6.1364,6.1363,6.1362,0,6.0672,6.07,6.0813,6.0873,6.089,6.0961,6.1011,6.1071,6.1093,6.1178,6.1198,6.1232,6.1308,6.1328,6.1418,6.1425,6.1535,6.153,6.1517,6.1516,6.1578,6.1571,6.1784,6.1811,6.164,6.1642,6.1643,0,6.0767,6.0837,6.0905,6.095,6.0985,6.1058,6.1104,6.1121,6.1168,6.1237,6.1287,6.1362,6.1422,6.1542,6.1573,6.164,6.1635,6.1705,6.1645,6.164,6.1633,6.1628,6.1633,6.1716,6.1717,6.1719,6.172,0,6.0931,6.0941,6.1009,6.1082,6.1137,6.1195,6.125,6.1286,6.1309,6.1363,6.1441,6.1488,6.1579,6.1652,6.1719,6.1749,6.1737,6.1739,6.1757,6.1755,6.1743,6.1748,6.1545,6.1734,6.1732,6.1731,6.1731,6.173,6.1045,6.1105,6.1162,6.1237,6.128,6.1331,6.139,6.1419,6.1485,6.1562,6.1567,6.165,6.1701,6.1791,6.1824,6.1887,6.1866,6.1893,6.1899,6.1905,6.1909,6.1735,6.19,6.1899,6.1899,6.1899,6.1898,0,6.1206,6.1242,6.1311,6.1388,6.1447,6.1433,6.1492,6.1541,6.1615,6.1665,6.1724,6.1811,6.1881,6.1917,6.1985,6.2028,6.2024,6.2045,6.2041,6.2047,6.1925,6.1902,6.2047,6.2047,6.2047,6.2047,6.2047,6.2047,6.1297,6.1398,6.1413,6.1533,6.1567,6.165,6.1685,6.173,6.1769,6.1868,6.1926,6.195,6.1993,6.2064,6.2126,6.2134,6.2158,6.2182,6.2187,6.2072,6.2056,6.2042,6.202,6.2187,6.2188,6.2303,6.2304,6.2305]}]]